EUTELSAT 172B

Last updated on Sat Oct 05 2024 00:02:40 GMT+0000 (Coordinated Universal Time)

1 42741U 17029B 24278.34354990 .00000002 00000+0 00000+0 0 9997 2 42741 0.0098 201.8377 0000218 238.9594 228.4232 1.00272417 27507
UTC large
Height (km)
Speed (km/s)
/
Latitude / Longitude
Inclination (degrees)
Orbital Period (minutes)
Azimuth
Elevation
Range (km)
Doppler Factor

Next 0 passes for location: London (51.5072 / 0.1276)

Sorry there are no passes over London.